Regional Weather Roundup
Issued by NWS

Home | Current Version | Previous Version | Text Only | Print | Product List | Glossary Off
Versions: 1 2 3 4 5 6 7 8 9 10 11 12 13 14 15 16 17 18 19 20 21 22 23 24 25 26 27 28 29 30 31 32 33 34 35 36 37 38 39 40 41 42 43 44 45 46 47 48 49 50

000
ASUS43 KLOT 292008
RWRIL

ILLINOIS REGIONAL WEATHER ROUNDUP
NATIONAL WEATHER SERVICE CHICAGO/ROMEOVILLE IL
300 PM CDT FRI APR 29 2016

NOTE: "FAIR" INDICATES FEW OR NO CLOUDS BELOW 12,000 FEET WITH NO
SIGNIFICANT WEATHER AND/OR OBSTRUCTIONS TO VISIBILITY.

* THESE STATIONS ARE NOT UNDER NWS QUALITY CONTROL. THEY ALSO MAY NOT
  REPORT WEATHER SUCH AS PRECIPITATION OR FOG.

ILZ001-002-007-009-015-016-024-292100-
NORTHWEST ILLINOIS

CITY           SKY/WX    TMP DP  RH WIND       PRES   REMARKS
MOLINE         CLOUDY    52  41  66 VRB6      30.10R
STERLING*      CLOUDY    48  43  81 E8        30.11S
SAVANNA*       CLOUDY    49  40  70 NE5       30.12R
$$

ILZ003-004-008-010-011-017-018-292100-
NORTH CENTRAL ILLINOIS

CITY           SKY/WX    TMP DP  RH WIND       PRES   REMARKS
ROCKFORD       CLOUDY    48  39  71 E8        30.14S
FREEPORT*      CLOUDY    46  38  74 E5        30.14R
ROCHELLE*      CLOUDY    47  40  77 NE6       30.12R
DE KALB*       CLOUDY    46  41  82 NE9       30.12R
$$

ILZ005-006-012>014-019>023-292100-
NORTHEAST ILLINOIS

CITY           SKY/WX    TMP DP  RH WIND       PRES   REMARKS
CHICAGO-OHARE  CLOUDY    50  39  66 NE9       30.09F
CHICAGO-MIDWAY CLOUDY    50  38  63 N10       30.10S
AURORA         CLOUDY    49  41  74 NE7       30.11R
LANSING*       CLOUDY    48  40  74 NE8       30.11S
JOLIET*        CLOUDY    52  43  71 N8        30.10S
WAUKEGAN       CLOUDY    46  38  73 NE12      30.11S
DUPAGE AIRPORT CLOUDY    47  38  71 N6        30.10S
KANKAKEE*      CLOUDY    54  43  67 NE6       30.10R
WHEELING       CLOUDY    48  39  71 N12       30.11F
MORRIS*        CLOUDY    51  43  73 CALM      30.09R
ROMEOVILLE*    CLOUDY    49  39  70 N8        30.11R
NORTHERLY ISL    N/A     44  39  82 N13         N/A
NORTHERLY ISL    N/A     44  39  82 N13         N/A
$$

LMZ740>746-292100-
SOUTHERN LAKE MICHIGAN

STATION/POSITION SKY/WX   TEMP    WIND        PRES    VSBY  WAVE
                          AIR SEA DIR/SP/G                  HT/PER
                          (F)     (DEG/KT/KT) (MB)    (MI)  (FT/S)
SOUTHERN BUOY              40 40  360/  8/ 10 1020.0R         1/ 3
HARRISON CRIB              42     350/  9/ 10   N/A
BURNHAM HARBOR             44     360/  8/ 12   N/A
CALUMET HARBOR             43     340/ 11/ 14 1018.9F
BURNS HARBOR               42     340/  8/ 10 1020.0F
MICHIGAN CITY              42     310/  8/  9   N/A
ST. JOSEPH                 43 46                N/A           2/ 3
$$

ILZ025>027-034>036-040-047-049-050-058-095>099-292100-
WEST-CENTRAL ILLINOIS

CITY           SKY/WX    TMP DP  RH WIND       PRES   REMARKS
QUINCY         CLOUDY    55  48  77 NE9       30.05F
GALESBURG*     CLOUDY    52  44  74 NE5       30.09F
MACOMB*        CLOUDY    52  46  78 E6        30.10S
JACKSONVILLE*  CLOUDY    56  49  77 NE9       30.06S
PITTSFIELD*    CLOUDY    58  51  79 NE10      30.05F
$$

ILZ028>032-037-038-041>044-048-051>054-059>061-292100-
CENTRAL ILLINOIS

CITY           SKY/WX    TMP DP  RH WIND       PRES   REMARKS
PONTIAC        CLOUDY    53  47  79 NE5       30.10S
BLOOMINGTON    CLOUDY    56  47  71 VRB5      30.09S
DECATUR        CLOUDY    58  48  69 VRB3      30.07S
PEORIA         CLOUDY    55  44  66 VRB7      30.08F
LACON*         CLOUDY    50  42  73 CALM      30.10R
LINCOLN*       CLOUDY    56  48  74 E5        30.08S
SPRINGFIELD    CLOUDY    58  49  72 NE8       30.07F
TAYLORVILLE    CLOUDY    59  50  72 E3        30.05F
$$

ILZ033-039-045-046-055>057-062-063-292100-
EAST-CENTRAL ILLINOIS

CITY           SKY/WX    TMP DP  RH WIND       PRES   REMARKS
CHAMPAIGN      CLOUDY    59  48  67 E5        30.07S
RANTOUL*       CLOUDY    56  48  72 CALM      30.08S
MATTOON        CLOUDY    61  50  67 NE8       30.05F
PARIS*         CLOUDY    60  50  67 CALM      30.07S
$$

ILZ079-100>102-292100-
SOUTHWEST ILLINOIS

CITY           SKY/WX    TMP DP  RH WIND       PRES   REMARKS
ALTON          PTSUNNY   63  52  67 E9        30.03F
BELLEVILLE     CLOUDY    62  54  75 E3        30.01F
CAHOKIA*       CLOUDY    63  51  65 E7        30.03F
SPARTA*        CLOUDY    62  54  76 SE5       30.03F
$$

ILZ064>066-069>071-074>076-080>082-084>086-088>090-092>094-292100-
SOUTH-CENTRAL ILLINOIS

CITY           SKY/WX    TMP DP  RH WIND       PRES   REMARKS
CARBONDALE     LGT RAIN  63  53  70 SE6       30.04S
CAIRO*         HVY RAIN  59  57  95 E9        30.02F
EFFINGHAM*     CLOUDY    64  53  65 E5        30.06F
MARION         CLOUDY    64  54  68 S9        30.05R
MT. VERNON     CLOUDY    63  52  67 E7        30.04F
CENTRALIA*     CLOUDY    64  54  71 E3        30.03F
SALEM*         CLOUDY    65  52  64 CALM      30.02F
METROPOLIS*    RAIN      62  60  94 CALM      30.07R
$$

ILZ067-068-072-073-078-083-087-091-292100-
SOUTHEAST ILLINOIS

CITY           SKY/WX    TMP DP  RH WIND       PRES   REMARKS
LAWRENCEVILLE  CLOUDY    65  50  58 CALM      30.05S
FLORA*         CLOUDY    65  53  64 SE6       30.04F
FAIRFIELD*     CLOUDY    64  53  65 SE3       30.03F
HARRISBURG*    CLOUDY    65  53  65 CALM      30.04R
ROBINSON*      CLOUDY    65  54  67 S3        30.06F
CARMI*         CLOUDY    65  52  62 NE3       30.03F
$$

ABBREVIATIONS USED IN REMARKS
   TC - TEMPERATURE IN CELSIUS
  WCI - WIND CHILL INDEX
   HX - HEAT INDEX
  VSB - VISIBILITY
$$





USA.gov is the U.S. government's official web portal to all federal, state and local government web resources and services.